SCP
0 0 0 0 0 0 0 0 0 0 0 0 0 0 0 0 0 0 0 0 0 0 0 0 0 0 0 0 0 0 0 0 0 0 0 0 0 0 0 0 0 0 0 0 0 0 0 0 0 0 0 0 0 0
0 0 0 0 0 0 0 0 0 0 0 0 0 0 0 0 0 0 0 0 0 0 0 0 0 0 0 0 0 0 0 0 0 0 0 0 0 0 0 0 0 0 0 0 0 0 0 0 0 0 0 0 0 0
0 0 0 0 0 0 0 0 0 0 0 0 0 0 0 0 0 0 0 0 0 0 0 0 0 0 0 0 0 0 0 0 0 0 0 0 0 0 0 0 0 0 0 0 0 0 0 0 0 0 0 0 0 0
0 0 0 0 0 0 0 0 0 0 0 0 0 0 0 0 0 0 0 0 0 0 0 0 0 0 0 0 0 0 0 0 0 0 0 0 0 0 0 0 0 0 0 0 0 0 0 0 0 0 0 0 0 0
0 0 0 0 0 0 0 0 0 0 0 0 0 0 0 0 0 0 0 0 0 0 0 0 -0 -0 0 0 0 0 0 0 0 0 0 0 0 0 0 0 0 0 0 0 0 0 0 0 0 0 0 0 0 0
0 0 0 0 0 0 0 0 0 0 0 0 0 0 0 0 0 0 0 0 0 0 0 -0 0 0 0 0 0 0 0 0 0 0 0 0 0 0 0 0 0 0 0 0 0 0 0 0 0 0 0 0 0 0
0 0 0 0 0 0 0 0 0 0 0 0 0 0 0 0 0 0 0 0 0 0 0 0 -0 -0 0 0 0 0 0 0 0 0 0 0 0 0 0 0 0 0 0 0 0 0 0 0 0 0 0 0 0 0
0 0 0 0 0 0 0 0 0 0 0 0 0 0 0 0 0 0 0 0 0 0 0 0 0 0 0 -0 0 0 0 0 0 0 0 0 0 0 0 0 0 0 0 0 0 0 0 0 0 0 0 0 0 0
0 0 0 0 0 0 0 0 0 0 0 0 0 0 0 0 0 0 0 0 0 0 0 0 0 -0 0 0 0 0 0 0 0 0 0 0 0 0 0 0 0 0 0 0 0 0 0 0 0 0 0 0 0 0
0 0 0 0 0 0 0 0 0 0 0 0 0 0 0 0 0 0 0 0 0 0 0 0 0 0 0 0 -0 0 0 0 0 0 0 0 0 0 0 0 0 0 0 0 0 0 0 0 0 0 0 0 0 0
0 0 0 0 0 0 0 0 0 0 0 0 0 0 0 0 0 0 0 0 0 0 0 0 0 0 0 0 0 0 0 0 0 0 0 0 0 0 0 0 0 0 0 0 0 0 0 0 0 0 0 0 0 0
0 0 0 0 0 0 0 0 0 0 0 0 0 0 0 0 0 0 0 0 0 0 0 0 -0 0 0 0 0 0 0 0 0 0 0 0 0 0 0 0 0 0 0 0 0 0 0 0 0 0 0 0 0 0
0 0 0 0 0 0 0 0 0 0 0 0 0 0 0 0 0 0 0 0 0 0 0 -0 -0 0 0 0 0 0 0 0 0 0 0 0 0 0 0 0 0 0 0 0 0 0 0 0 0 0 0 0 0 0
0 0 0 0 0 0 0 0 0 0 0 0 0 0 0 0 0 0 0 0 0 -0 0 0 -0 -0 -0 0 0 0 0 0 0 0 0 0 0 0 0 -0 0 0 0 0 0 0 0 0 0 0 0 0 0 0
0 0 0 0 0 0 0 0 0 0 0 0 0 0 0 0 0 0 0 -0 0 0 0 -0 -0 -0 -0 -0 0 0 0 0 0 0 0 0 0 -0 -0 -0 0 0 0 0 0 0 0 0 0 0 0 0 0 0
0 0 0 0 0 0 0 0 0 0 0 0 0 0 0 0 0 0 -0 -0 -0 0 0 -0 0 -0 -0 0 0 0 0 0 0 0 0 0 0 -0 0 0 0 0 0 0 0 0 0 0 0 0 0 0 0 0
0 0 0 0 0 0 0 0 0 0 0 0 0 0 0 0 0 0 0 0 0 0 0 -0 0 0 -0 0 0 0 0 0 0 0 0 0 0 0 0 0 0 0 0 0 0 0 0 0 0 0 0 0 0 0
0 0 0 0 0 0 0 0 0 0 0 0 0 0 0 0 0 -0 -0 0 0 0 0 0 -0 0 0 0 0 0 0 0 0 -0 0 -0 -0 0 0 0 0 0 0 0 0 0 0 0 0 0 0 0 0 -0
0 0 0 0 0 0 0 0 0 0 0 0 0 0 0 0 -0 -0 -0 0 0 0 -0 0 0 0 -0 0 0 0 0 0 0 -0 0 0 0 0 0 0 0 0 0 0 0 0 0 0 0 0 -0 -0 -0 -0
0 0 0 0 0 0 0 0 0 0 0 0 0 0 0 -0 -0 0 0 0 -0 -0 -0 0 0 0 0 0 0 0 0 0 0 0 0 0 0 0 0 0 0 0 0 0 0 0 0 0 -0 -0 -0 -0 -0 -0
0 0 0 0 0 0 0 0 0 0 0 0 0 0 0 0 -0 0 0 0 -0 0 0 0 -0 -0 -0 0 0 0 0 0 0 0 0 0 0 0 0 0 0 0 0 0 0 0 0 -0 -0 -0 -0 -0 -0 -0
0 0 0 0 0 0 0 0 0 0 0 0 0 0 0 -0 0 0 -0 0 0 -0 -0 0 0 -0 0 0 0 0 -0 0 0 0 0 0 0 0 0 0 0 0 0 0 0 -0 -0 -0 -0 -0 -0 -0 0 -0
0 0 0 0 0 0 0 0 0 0 0 0 0 0 0 0 0 0 0 0 0 -0 -0 -0 -0 0 0 0 0 0 0 0 0 0 0 0 0 0 0 0 0 0 0 0 0 -0 -0 0 -0 -0 -0 -0 0 -0
0 0 0 0 0 0 0 0 0 0 0 0 0 0 0 0 0 0 0 0 0 0 0 0 0 -0 0 0 0 0 0 0 0 0 0 0 0 0 0 0 0 0 0 0 0 0 0 -0 -0 -0 -0 0 0 0
0 0 0 0 0 0 0 0 0 0 0 0 0 0 0 0 0 0 0 0 0 0 0 0 0 0 -0 0 0 0 0 0 0 0 0 0 0 0 0 0 0 0 0 0 0 0 -0 -0 -0 -0 -0 0 -0 -0
0 0 0 0 0 0 0 0 0 0 0 0 0 0 0 0 0 0 0 0 0 0 0 0 0 0 0 0 0 0 0 0 0 0 0 0 0 0 0 0 0 0 0 0 0 0 0 -0 -0 -0 0 0 -0 -0
0 0 0 0 0 0 0 0 0 0 0 0 0 0 0 0 0 0 0 0 0 0 0 0 0 0 0 0 0 0 0 0 0 0 0 0 0 0 0 0 0 0 0 0 0 0 -0 -0 0 0 0 -0 0 0
0 0 0 0 0 0 0 0 0 0 0 0 0 0 0 0 0 0 0 0 0 0 0 0 0 0 0 0 0 0 0 0 0 0 0 0 0 0 0 0 0 0 0 0 0 0 -0 0 0 0 0 0 0 0
0 0 0 0 0 0 -0 -0 0 0 0 0 0 0 0 0 0 0 0 0 0 0 0 0 0 0 0 0 0 0 0 0 0 0 0 0 0 0 0 0 0 0 0 0 0 0 0 0 -0 -0 0 0 0 0
0 0 0 0 0 0 0 0 0 0 0 0 0 0 0 0 0 0 0 0 0 0 0 0 0 0 0 0 0 0 0 0 0 0 0 0 0 0 0 0 0 0 0 0 0 0 -0 -0 -0 -0 -0 0 0 0
0 0 0 0 0 0 0 0 0 0 0 0 0 0 0 0 0 0 0 0 0 0 0 0 0 0 0 0 0 0 0 0 0 0 0 0 0 0 0 0 0 0 0 0 -0 -0 0 0 0 -0 -0 -0 -0 0
0 0 0 0 0 0 0 0 0 0 0 0 0 0 0 0 0 0 0 0 0 0 0 0 0 0 0 0 0 0 0 0 0 0 0 0 0 0 0 0 0 0 0 0 0 -0 0 -0 -0 -0 -0 -0 -0 0
0 0 0 0 0 0 0 0 0 0 0 0 0 0 0 0 0 0 0 0 0 0 0 0 0 0 0 0 0 0 0 0 0 0 0 0 0 0 0 0 0 0 0 0 0 -0 0 -0 -0 0 0 0 0 0
Wind_Speed_500mb
31 31 30 30 30 32 30 29 30 32 34 36 37 35 32 31 29 16 13 13 13 14 44 48 39 27 30 16 5 14 17 6 9 3 7 8 7 12 7 9 7 7 4 7 6 3 12 22 4 16 17 51 62 50
28 29 30 29 29 30 31 31 31 32 33 35 36 35 32 31 33 27 11 16 27 28 27 24 27 38 31 27 12 4 12 9 9 4 2 1 5 3 8 7 2 4 12 7 15 12 9 9 6 15 57 68 48 47
27 30 30 28 28 28 29 29 29 31 31 31 32 32 33 34 33 35 31 22 23 21 54 53 66 54 47 52 53 23 20 23 14 11 4 4 6 6 8 11 5 5 8 5 5 5 7 17 40 55 48 47 41 37
29 30 30 30 29 29 28 29 31 32 32 32 32 31 32 32 35 36 41 32 24 13 10 24 27 53 39 26 35 47 57 37 33 40 5 5 4 9 6 5 8 12 2 4 2 4 7 11 28 38 42 41 39 31
28 28 28 29 29 28 28 29 29 30 32 33 33 33 33 35 38 36 36 18 13 18 8 33 74 76 55 55 57 56 55 56 50 12 8 9 11 7 4 2 8 11 12 8 10 18 10 24 45 49 46 39 33 35
29 29 28 27 26 26 27 29 31 32 32 34 35 34 33 35 41 35 5 11 8 13 11 8 20 53 60 56 54 48 54 68 52 23 15 26 22 21 8 14 22 34 22 19 20 35 31 36 50 45 40 37 40 35
30 31 32 31 30 30 31 31 32 33 34 34 35 36 32 34 38 24 14 23 31 30 11 14 14 18 34 23 15 28 45 51 47 26 27 27 24 41 8 14 9 40 36 7 22 21 16 48 51 44 42 44 40 33
25 28 30 30 30 31 32 33 33 34 35 35 37 36 37 35 35 24 0 12 15 20 13 8 9 20 26 13 14 14 15 30 33 33 19 31 26 14 16 31 59 58 46 34 25 33 32 43 39 50 50 50 42 34
30 31 31 31 29 30 31 33 33 34 35 37 38 35 29 4 4 9 30 26 18 17 8 9 6 7 22 18 18 22 16 7 25 13 18 27 14 18 15 38 32 48 65 74 37 38 37 48 62 60 54 45 35 29
30 31 31 32 32 32 33 33 34 34 34 33 30 10 6 4 18 37 9 2 4 12 13 10 11 12 37 36 12 25 12 8 6 12 29 18 27 51 33 34 45 62 61 60 50 40 58 63 62 60 50 39 30 23
28 29 31 31 31 32 32 29 28 30 27 17 10 8 19 34 30 5 5 5 3 6 9 8 11 12 31 21 14 16 7 8 7 7 8 8 16 18 57 61 55 42 35 69 62 55 59 58 68 59 46 34 25 20
27 26 28 28 29 30 27 24 25 27 20 20 22 32 18 6 2 4 4 9 7 6 10 9 34 35 26 25 17 14 9 8 11 11 1 9 7 43 59 71 75 65 62 40 57 57 59 61 64 52 41 33 22 13
26 29 28 29 30 26 24 21 21 20 23 14 7 8 5 4 4 7 7 6 5 9 11 20 15 14 19 27 18 8 12 11 9 2 7 3 16 21 46 75 79 82 82 59 53 51 66 64 52 43 35 24 16 8
27 29 28 26 24 24 21 13 10 14 9 4 4 8 6 6 9 9 8 7 15 28 49 45 29 14 15 12 9 11 10 2 5 6 7 2 35 62 52 42 54 62 59 60 70 79 70 59 48 34 24 19 16 13
26 24 20 10 15 13 10 13 14 12 5 5 6 8 10 22 23 26 36 39 61 55 44 41 29 18 8 11 8 8 5 9 8 4 6 34 51 61 47 36 55 67 71 82 81 74 65 55 45 37 27 24 20 16
24 18 4 13 18 13 9 12 13 10 7 8 13 10 22 18 29 31 32 41 46 37 39 23 8 7 8 12 10 7 7 3 7 7 36 46 46 57 33 36 60 82 91 87 78 65 53 43 36 34 33 28 23 20
17 6 9 20 13 10 13 14 10 10 10 10 16 29 41 34 35 54 44 47 49 39 9 8 8 5 4 9 4 7 6 3 23 37 38 26 35 30 11 34 77 89 90 76 63 50 43 39 37 36 39 38 34 47
13 7 14 15 11 17 21 19 10 11 14 24 16 41 41 43 42 53 54 53 45 25 11 5 10 6 7 11 4 3 7 23 27 27 23 16 13 4 17 47 85 79 70 60 51 47 44 42 37 37 48 47 54 44
16 19 17 16 15 13 7 7 11 11 22 26 41 54 51 45 52 52 51 47 46 39 11 7 7 5 6 9 18 37 30 26 35 28 6 8 30 14 35 40 44 54 59 59 52 46 41 35 41 50 58 58 52 44
17 17 12 11 13 8 8 9 13 14 12 12 22 30 33 35 54 55 51 44 38 17 11 7 8 9 10 39 29 25 26 22 28 31 31 36 44 36 43 37 41 49 52 50 46 47 45 53 61 59 54 48 43 38
17 9 12 16 18 15 12 10 14 15 18 13 22 30 38 39 43 45 46 39 23 11 10 30 41 40 41 29 12 19 18 12 18 26 27 27 17 30 22 33 38 44 47 45 49 56 62 60 53 48 41 37 36 31
14 13 15 20 11 11 15 17 15 19 15 22 27 19 20 16 14 7 10 13 13 39 48 53 50 41 39 31 18 22 23 4 13 19 28 28 17 13 16 27 34 48 46 50 55 67 55 51 47 40 35 33 26 19
16 14 12 11 11 10 12 12 11 9 5 8 12 8 7 8 9 15 6 10 16 33 40 45 45 42 38 27 11 18 15 8 11 19 25 22 26 26 16 30 37 51 50 49 54 56 54 48 41 35 29 26 24 22
15 9 7 8 14 9 8 8 11 10 8 6 5 7 7 8 9 6 5 10 19 28 19 20 30 30 29 23 18 17 30 9 8 19 31 40 42 29 26 31 44 45 47 48 51 51 49 43 37 31 25 24 28 24
8 9 8 11 8 7 7 6 8 5 7 5 5 6 5 10 4 4 5 9 20 29 24 13 18 30 34 26 12 15 3 14 13 26 28 34 36 22 32 26 35 41 43 46 45 46 40 34 31 26 24 30 23 18
7 11 15 10 11 10 9 6 6 7 6 7 7 7 6 5 5 8 6 10 28 32 22 15 10 24 32 27 17 7 24 11 16 15 23 32 29 28 21 35 46 37 45 44 44 35 29 28 31 24 24 30 23 15
9 12 17 19 14 12 11 15 22 11 8 7 4 3 2 5 7 8 18 26 27 21 16 9 11 16 29 19 17 49 16 18 24 22 21 27 29 20 15 36 42 39 36 38 28 27 34 33 22 25 31 29 19 13
15 12 12 11 14 20 8 6 7 7 7 10 4 7 5 6 7 12 36 42 37 20 17 12 4 7 18 22 51 39 9 17 16 15 18 24 20 13 9 23 30 25 29 30 30 32 30 23 26 28 27 19 23 19
13 18 18 22 17 13 14 16 13 16 15 12 7 5 8 19 45 59 61 36 14 12 19 18 15 14 15 27 26 24 19 13 8 6 20 20 16 11 20 33 43 37 34 32 26 23 22 19 19 27 15 12 26 23
12 17 13 10 6 8 14 21 24 35 40 44 43 53 58 55 47 27 14 11 10 13 16 19 14 14 18 19 21 18 15 12 12 11 14 13 10 14 15 31 42 41 34 23 23 28 28 22 24 31 31 23 24 29
13 8 11 13 11 28 40 39 46 52 55 56 45 44 48 26 15 6 8 11 15 19 23 22 17 15 17 19 21 23 21 27 20 11 5 6 9 9 15 29 37 42 22 16 8 20 22 17 12 22 31 27 28 23
10 13 8 6 10 26 31 8 11 8 9 8 6 5 6 4 2 4 14 19 18 19 20 17 13 14 20 27 27 23 28 18 13 12 9 14 15 18 17 22 31 23 15 10 21 31 23 20 22 18 19 17 13 14
13 19 20 10 8 9 9 14 8 8 7 6 6 5 4 5 8 7 15 13 14 14 12 13 16 22 28 25 22 20 18 15 12 7 7 12 23 30 32 32 30 25 22 22 25 20 22 27 23 20 28 25 21 20
Wind_Direction_500mb
317 319 321 322 325 332 331 331 334 336 339 342 343 343 342 342 336 342 284 263 257 257 264 264 261 257 273 271 204 325 342 313 346 52 153 208 175 218 144 225 196 182 164 219 109 132 273 193 119 167 173 144 153 155
319 323 324 323 325 329 330 332 333 335 336 338 342 343 344 346 341 338 330 283 275 267 261 267 269 246 263 236 261 255 279 325 276 53 294 153 246 137 158 230 7 268 188 203 175 217 274 203 221 180 158 156 166 159
317 320 322 321 321 324 325 328 328 327 330 330 334 337 342 345 345 335 328 326 307 287 286 272 267 275 266 258 253 238 254 223 246 357 292 237 262 124 178 238 208 257 165 185 73 308 332 110 143 154 165 162 160 156
317 321 323 322 320 323 327 328 329 329 329 331 331 330 331 331 334 333 323 313 288 269 278 280 271 262 264 255 237 235 250 242 260 285 242 261 224 189 233 247 179 206 136 153 307 301 69 181 179 170 161 155 154 155
315 318 322 326 327 323 322 323 324 328 329 329 329 328 326 325 325 330 316 317 267 230 278 295 293 284 278 261 251 242 249 254 254 228 194 215 226 226 231 60 249 197 183 159 218 188 188 203 171 166 159 164 172 163
306 307 311 315 321 323 322 322 323 322 324 327 328 328 326 323 323 339 334 32 47 32 294 292 292 287 289 277 262 251 241 245 227 206 199 222 227 198 204 220 225 225 217 234 248 276 241 196 179 175 177 177 166 168
305 304 302 300 303 309 314 316 317 318 317 318 319 318 314 310 308 312 296 304 296 300 310 296 281 279 309 315 277 265 251 227 225 219 214 216 218 212 195 231 240 217 225 237 226 195 178 181 182 184 182 166 167 159
309 312 315 309 301 301 306 308 310 314 317 319 316 311 306 300 294 299 2 346 318 261 233 271 269 305 310 309 296 278 250 217 220 226 203 203 215 203 235 222 233 235 251 254 243 207 198 185 185 171 171 164 161 159
306 308 309 311 308 306 304 306 307 313 319 321 320 314 305 335 348 329 321 289 275 235 259 245 264 289 318 327 292 281 246 240 230 211 207 183 188 219 195 201 213 218 224 238 237 222 207 193 175 168 168 171 179 173
302 305 305 305 305 306 305 307 308 312 320 323 325 317 295 245 296 315 305 236 220 213 238 263 314 281 320 319 298 337 281 250 235 229 183 214 222 214 193 204 227 234 230 229 208 178 171 167 172 173 180 183 188 178
305 306 306 305 305 306 307 307 312 318 329 331 321 283 293 300 303 257 271 231 223 246 231 275 298 303 291 262 266 258 279 275 241 241 197 215 222 208 214 226 232 240 250 232 231 218 205 198 182 175 176 179 180 173
308 307 307 304 306 307 309 304 305 315 316 311 302 297 321 332 273 267 258 298 236 259 321 302 296 293 279 251 229 231 208 261 246 350 21 253 207 206 217 224 230 230 242 228 213 207 204 199 184 183 181 174 169 176
307 307 309 308 306 306 305 304 304 310 316 324 311 290 288 282 265 216 223 204 253 242 259 292 302 274 278 233 231 249 224 229 311 237 226 272 340 245 239 225 232 231 231 238 228 215 187 173 176 179 169 167 166 169
306 308 308 310 306 300 301 314 307 312 316 303 311 289 241 223 243 209 218 214 275 279 287 285 276 229 244 241 222 212 231 120 228 222 243 359 348 336 308 274 223 209 201 207 191 169 167 168 165 163 167 168 177 180
311 310 313 327 335 325 303 307 300 290 283 263 224 244 238 244 262 271 282 290 286 290 273 292 270 233 242 259 219 201 198 241 195 272 327 332 329 336 313 263 212 185 181 171 164 165 163 159 159 161 166 170 174 178
315 315 283 310 321 325 308 299 297 290 238 240 232 252 255 278 279 279 280 281 304 299 291 286 257 274 271 310 209 181 220 61 347 301 305 318 322 333 328 217 194 182 177 167 161 158 157 162 168 165 163 171 171 168
314 283 309 331 320 305 296 279 274 233 236 234 242 242 251 270 268 275 288 291 304 299 288 279 283 289 300 284 187 15 20 271 293 307 323 336 334 333 347 153 157 157 153 150 150 155 156 157 159 161 162 160 155 147
316 276 309 308 318 317 301 262 241 245 247 244 249 259 253 254 263 276 287 298 298 297 270 239 274 295 286 333 28 286 299 317 332 324 334 352 348 266 123 135 139 142 144 148 152 152 154 157 160 159 153 151 151 151
302 292 292 291 306 304 277 244 220 263 247 257 256 267 274 273 281 286 290 295 296 298 259 275 281 261 258 262 293 302 332 346 334 321 353 74 144 150 125 126 136 146 145 145 146 147 150 158 155 151 149 149 150 149
291 287 297 298 290 275 270 247 225 252 262 263 263 269 270 272 286 286 284 281 282 274 222 228 228 245 275 322 303 297 327 328 356 18 40 62 92 106 129 146 149 142 141 141 141 142 143 144 146 145 146 149 151 150
298 291 257 295 276 247 262 257 247 251 273 255 297 312 295 281 278 279 281 272 261 230 240 242 259 282 301 301 277 340 349 336 16 18 13 70 121 29 96 136 142 145 146 146 148 147 146 147 145 147 145 140 141 144
284 290 287 288 248 241 253 243 248 287 277 265 280 259 263 288 284 278 302 201 222 237 238 252 264 279 296 293 287 339 3 344 23 26 48 81 98 31 85 137 147 144 138 139 143 147 147 143 141 137 137 140 144 145
283 283 265 239 241 238 259 247 248 250 269 276 305 281 251 273 271 315 282 256 256 262 261 256 263 271 289 289 241 11 4 28 50 51 57 53 19 41 104 144 150 146 137 133 144 152 143 140 139 137 139 147 155 148
280 249 241 241 219 262 266 254 236 256 263 257 260 273 266 256 277 246 254 267 268 309 304 267 248 259 273 253 216 343 303 296 47 32 25 33 39 74 111 142 149 152 147 140 143 142 139 135 131 126 130 134 141 132
263 236 224 251 239 245 252 251 253 225 264 246 269 264 278 290 275 282 251 279 354 24 7 302 248 243 262 265 211 325 190 119 18 7 31 33 41 97 137 141 153 147 157 151 147 148 146 142 135 136 140 154 146 135
263 221 201 226 203 197 225 263 234 229 270 248 245 256 300 315 284 279 276 319 328 325 345 4 278 234 242 257 191 309 161 64 17 23 11 2 29 87 109 145 150 155 157 154 151 158 161 163 154 156 156 160 148 131
245 253 228 233 243 256 268 264 278 261 259 258 191 196 292 264 250 252 298 316 317 313 300 299 347 243 228 170 207 168 150 14 0 346 21 57 113 127 117 126 139 144 144 154 157 154 147 144 149 156 158 161 152 144
245 258 214 240 231 239 245 238 244 250 231 216 212 220 223 225 256 257 305 317 318 289 255 239 218 158 190 159 158 174 246 316 322 357 57 121 160 189 145 136 140 145 141 144 150 146 153 155 159 167 168 173 194 186
243 245 267 268 264 252 228 207 220 228 236 206 222 235 230 237 277 287 298 311 293 248 217 204 192 181 156 183 210 241 253 253 301 33 103 133 91 108 154 157 148 148 134 133 133 153 162 165 173 178 194 200 173 183
245 232 242 270 241 245 238 223 254 271 276 276 282 285 287 290 305 314 270 209 227 212 191 181 177 183 186 194 196 196 199 205 181 126 126 122 79 53 125 150 166 168 172 145 158 173 176 186 210 212 193 192 207 205
257 250 256 239 255 259 274 283 281 284 282 280 279 264 271 295 350 63 153 143 149 158 168 179 189 201 202 195 186 182 176 158 151 163 161 147 159 162 163 163 162 173 163 160 246 232 204 167 147 176 192 205 205 208
239 224 245 262 279 296 309 302 293 288 290 304 303 299 305 244 279 71 159 148 161 174 181 181 187 185 168 170 169 161 163 184 232 231 199 185 179 165 157 173 176 179 176 156 149 145 161 175 176 174 188 192 183 211
258 265 257 271 277 288 305 327 299 296 291 277 272 300 327 8 51 101 157 141 134 143 157 167 164 168 173 176 187 204 220 198 189 192 191 181 172 176 178 178 176 167 149 150 172 188 188 186 179 159 151 146 155 195
Wind_Speed_850mb
31 31 30 30 30 32 30 29 30 32 34 36 37 35 32 31 29 16 13 13 13 14 44 48 39 27 30 16 5 14 17 6 9 3 7 8 7 12 7 9 7 7 4 7 6 3 12 22 4 16 17 51 62 50
28 29 30 29 29 30 31 31 31 32 33 35 36 35 32 31 33 27 11 16 27 28 27 24 27 38 31 27 12 4 12 9 9 4 2 1 5 3 8 7 2 4 12 7 15 12 9 9 6 15 57 68 48 47
27 30 30 28 28 28 29 29 29 31 31 31 32 32 33 34 33 35 31 22 23 21 54 53 66 54 47 52 53 23 20 23 14 11 4 4 6 6 8 11 5 5 8 5 5 5 7 17 40 55 48 47 41 37
29 30 30 30 29 29 28 29 31 32 32 32 32 31 32 32 35 36 41 32 24 13 10 24 27 53 39 26 35 47 57 37 33 40 5 5 4 9 6 5 8 12 2 4 2 4 7 11 28 38 42 41 39 31
28 28 28 29 29 28 28 29 29 30 32 33 33 33 33 35 38 36 36 18 13 18 8 33 74 76 55 55 57 56 55 56 50 12 8 9 11 7 4 2 8 11 12 8 10 18 10 24 45 49 46 39 33 35
29 29 28 27 26 26 27 29 31 32 32 34 35 34 33 35 41 35 5 11 8 13 11 8 20 53 60 56 54 48 54 68 52 23 15 26 22 21 8 14 22 34 22 19 20 35 31 36 50 45 40 37 40 35
30 31 32 31 30 30 31 31 32 33 34 34 35 36 32 34 38 24 14 23 31 30 11 14 14 18 34 23 15 28 45 51 47 26 27 27 24 41 8 14 9 40 36 7 22 21 16 48 51 44 42 44 40 33
25 28 30 30 30 31 32 33 33 34 35 35 37 36 37 35 35 24 0 12 15 20 13 8 9 20 26 13 14 14 15 30 33 33 19 31 26 14 16 31 59 58 46 34 25 33 32 43 39 50 50 50 42 34
30 31 31 31 29 30 31 33 33 34 35 37 38 35 29 4 4 9 30 26 18 17 8 9 6 7 22 18 18 22 16 7 25 13 18 27 14 18 15 38 32 48 65 74 37 38 37 48 62 60 54 45 35 29
30 31 31 32 32 32 33 33 34 34 34 33 30 10 6 4 18 37 9 2 4 12 13 10 11 12 37 36 12 25 12 8 6 12 29 18 27 51 33 34 45 62 61 60 50 40 58 63 62 60 50 39 30 23
28 29 31 31 31 32 32 29 28 30 27 17 10 8 19 34 30 5 5 5 3 6 9 8 11 12 31 21 14 16 7 8 7 7 8 8 16 18 57 61 55 42 35 69 62 55 59 58 68 59 46 34 25 20
27 26 28 28 29 30 27 24 25 27 20 20 22 32 18 6 2 4 4 9 7 6 10 9 34 35 26 25 17 14 9 8 11 11 1 9 7 43 59 71 75 65 62 40 57 57 59 61 64 52 41 33 22 13
26 29 28 29 30 26 24 21 21 20 23 14 7 8 5 4 4 7 7 6 5 9 11 20 15 14 19 27 18 8 12 11 9 2 7 3 16 21 46 75 79 82 82 59 53 51 66 64 52 43 35 24 16 8
27 29 28 26 24 24 21 13 10 14 9 4 4 8 6 6 9 9 8 7 15 28 49 45 29 14 15 12 9 11 10 2 5 6 7 2 35 62 52 42 54 62 59 60 70 79 70 59 48 34 24 19 16 13
26 24 20 10 15 13 10 13 14 12 5 5 6 8 10 22 23 26 36 39 61 55 44 41 29 18 8 11 8 8 5 9 8 4 6 34 51 61 47 36 55 67 71 82 81 74 65 55 45 37 27 24 20 16
24 18 4 13 18 13 9 12 13 10 7 8 13 10 22 18 29 31 32 41 46 37 39 23 8 7 8 12 10 7 7 3 7 7 36 46 46 57 33 36 60 82 91 87 78 65 53 43 36 34 33 28 23 20
17 6 9 20 13 10 13 14 10 10 10 10 16 29 41 34 35 54 44 47 49 39 9 8 8 5 4 9 4 7 6 3 23 37 38 26 35 30 11 34 77 89 90 76 63 50 43 39 37 36 39 38 34 47
13 7 14 15 11 17 21 19 10 11 14 24 16 41 41 43 42 53 54 53 45 25 11 5 10 6 7 11 4 3 7 23 27 27 23 16 13 4 17 47 85 79 70 60 51 47 44 42 37 37 48 47 54 44
16 19 17 16 15 13 7 7 11 11 22 26 41 54 51 45 52 52 51 47 46 39 11 7 7 5 6 9 18 37 30 26 35 28 6 8 30 14 35 40 44 54 59 59 52 46 41 35 41 50 58 58 52 44
17 17 12 11 13 8 8 9 13 14 12 12 22 30 33 35 54 55 51 44 38 17 11 7 8 9 10 39 29 25 26 22 28 31 31 36 44 36 43 37 41 49 52 50 46 47 45 53 61 59 54 48 43 38
17 9 12 16 18 15 12 10 14 15 18 13 22 30 38 39 43 45 46 39 23 11 10 30 41 40 41 29 12 19 18 12 18 26 27 27 17 30 22 33 38 44 47 45 49 56 62 60 53 48 41 37 36 31
14 13 15 20 11 11 15 17 15 19 15 22 27 19 20 16 14 7 10 13 13 39 48 53 50 41 39 31 18 22 23 4 13 19 28 28 17 13 16 27 34 48 46 50 55 67 55 51 47 40 35 33 26 19
16 14 12 11 11 10 12 12 11 9 5 8 12 8 7 8 9 15 6 10 16 33 40 45 45 42 38 27 11 18 15 8 11 19 25 22 26 26 16 30 37 51 50 49 54 56 54 48 41 35 29 26 24 22
15 9 7 8 14 9 8 8 11 10 8 6 5 7 7 8 9 6 5 10 19 28 19 20 30 30 29 23 18 17 30 9 8 19 31 40 42 29 26 31 44 45 47 48 51 51 49 43 37 31 25 24 28 24
8 9 8 11 8 7 7 6 8 5 7 5 5 6 5 10 4 4 5 9 20 29 24 13 18 30 34 26 12 15 3 14 13 26 28 34 36 22 32 26 35 41 43 46 45 46 40 34 31 26 24 30 23 18
7 11 15 10 11 10 9 6 6 7 6 7 7 7 6 5 5 8 6 10 28 32 22 15 10 24 32 27 17 7 24 11 16 15 23 32 29 28 21 35 46 37 45 44 44 35 29 28 31 24 24 30 23 15
9 12 17 19 14 12 11 15 22 11 8 7 4 3 2 5 7 8 18 26 27 21 16 9 11 16 29 19 17 49 16 18 24 22 21 27 29 20 15 36 42 39 36 38 28 27 34 33 22 25 31 29 19 13
15 12 12 11 14 20 8 6 7 7 7 10 4 7 5 6 7 12 36 42 37 20 17 12 4 7 18 22 51 39 9 17 16 15 18 24 20 13 9 23 30 25 29 30 30 32 30 23 26 28 27 19 23 19
13 18 18 22 17 13 14 16 13 16 15 12 7 5 8 19 45 59 61 36 14 12 19 18 15 14 15 27 26 24 19 13 8 6 20 20 16 11 20 33 43 37 34 32 26 23 22 19 19 27 15 12 26 23
12 17 13 10 6 8 14 21 24 35 40 44 43 53 58 55 47 27 14 11 10 13 16 19 14 14 18 19 21 18 15 12 12 11 14 13 10 14 15 31 42 41 34 23 23 28 28 22 24 31 31 23 24 29
13 8 11 13 11 28 40 39 46 52 55 56 45 44 48 26 15 6 8 11 15 19 23 22 17 15 17 19 21 23 21 27 20 11 5 6 9 9 15 29 37 42 22 16 8 20 22 17 12 22 31 27 28 23
10 13 8 6 10 26 31 8 11 8 9 8 6 5 6 4 2 4 14 19 18 19 20 17 13 14 20 27 27 23 28 18 13 12 9 14 15 18 17 22 31 23 15 10 21 31 23 20 22 18 19 17 13 14
13 19 20 10 8 9 9 14 8 8 7 6 6 5 4 5 8 7 15 13 14 14 12 13 16 22 28 25 22 20 18 15 12 7 7 12 23 30 32 32 30 25 22 22 25 20 22 27 23 20 28 25 21 20
Wind_Direction_850mb
317 319 321 322 325 332 331 331 334 336 339 342 343 343 342 342 336 342 284 263 257 257 264 264 261 257 273 271 204 325 342 313 346 52 153 208 175 218 144 225 196 182 164 219 109 132 273 193 119 167 173 144 153 155
319 323 324 323 325 329 330 332 333 335 336 338 342 343 344 346 341 338 330 283 275 267 261 267 269 246 263 236 261 255 279 325 276 53 294 153 246 137 158 230 7 268 188 203 175 217 274 203 221 180 158 156 166 159
317 320 322 321 321 324 325 328 328 327 330 330 334 337 342 345 345 335 328 326 307 287 286 272 267 275 266 258 253 238 254 223 246 357 292 237 262 124 178 238 208 257 165 185 73 308 332 110 143 154 165 162 160 156
317 321 323 322 320 323 327 328 329 329 329 331 331 330 331 331 334 333 323 313 288 269 278 280 271 262 264 255 237 235 250 242 260 285 242 261 224 189 233 247 179 206 136 153 307 301 69 181 179 170 161 155 154 155
315 318 322 326 327 323 322 323 324 328 329 329 329 328 326 325 325 330 316 317 267 230 278 295 293 284 278 261 251 242 249 254 254 228 194 215 226 226 231 60 249 197 183 159 218 188 188 203 171 166 159 164 172 163
306 307 311 315 321 323 322 322 323 322 324 327 328 328 326 323 323 339 334 32 47 32 294 292 292 287 289 277 262 251 241 245 227 206 199 222 227 198 204 220 225 225 217 234 248 276 241 196 179 175 177 177 166 168
305 304 302 300 303 309 314 316 317 318 317 318 319 318 314 310 308 312 296 304 296 300 310 296 281 279 309 315 277 265 251 227 225 219 214 216 218 212 195 231 240 217 225 237 226 195 178 181 182 184 182 166 167 159
309 312 315 309 301 301 306 308 310 314 317 319 316 311 306 300 294 299 2 346 318 261 233 271 269 305 310 309 296 278 250 217 220 226 203 203 215 203 235 222 233 235 251 254 243 207 198 185 185 171 171 164 161 159
306 308 309 311 308 306 304 306 307 313 319 321 320 314 305 335 348 329 321 289 275 235 259 245 264 289 318 327 292 281 246 240 230 211 207 183 188 219 195 201 213 218 224 238 237 222 207 193 175 168 168 171 179 173
302 305 305 305 305 306 305 307 308 312 320 323 325 317 295 245 296 315 305 236 220 213 238 263 314 281 320 319 298 337 281 250 235 229 183 214 222 214 193 204 227 234 230 229 208 178 171 167 172 173 180 183 188 178
305 306 306 305 305 306 307 307 312 318 329 331 321 283 293 300 303 257 271 231 223 246 231 275 298 303 291 262 266 258 279 275 241 241 197 215 222 208 214 226 232 240 250 232 231 218 205 198 182 175 176 179 180 173
308 307 307 304 306 307 309 304 305 315 316 311 302 297 321 332 273 267 258 298 236 259 321 302 296 293 279 251 229 231 208 261 246 350 21 253 207 206 217 224 230 230 242 228 213 207 204 199 184 183 181 174 169 176
307 307 309 308 306 306 305 304 304 310 316 324 311 290 288 282 265 216 223 204 253 242 259 292 302 274 278 233 231 249 224 229 311 237 226 272 340 245 239 225 232 231 231 238 228 215 187 173 176 179 169 167 166 169
306 308 308 310 306 300 301 314 307 312 316 303 311 289 241 223 243 209 218 214 275 279 287 285 276 229 244 241 222 212 231 120 228 222 243 359 348 336 308 274 223 209 201 207 191 169 167 168 165 163 167 168 177 180
311 310 313 327 335 325 303 307 300 290 283 263 224 244 238 244 262 271 282 290 286 290 273 292 270 233 242 259 219 201 198 241 195 272 327 332 329 336 313 263 212 185 181 171 164 165 163 159 159 161 166 170 174 178
315 315 283 310 321 325 308 299 297 290 238 240 232 252 255 278 279 279 280 281 304 299 291 286 257 274 271 310 209 181 220 61 347 301 305 318 322 333 328 217 194 182 177 167 161 158 157 162 168 165 163 171 171 168
314 283 309 331 320 305 296 279 274 233 236 234 242 242 251 270 268 275 288 291 304 299 288 279 283 289 300 284 187 15 20 271 293 307 323 336 334 333 347 153 157 157 153 150 150 155 156 157 159 161 162 160 155 147
316 276 309 308 318 317 301 262 241 245 247 244 249 259 253 254 263 276 287 298 298 297 270 239 274 295 286 333 28 286 299 317 332 324 334 352 348 266 123 135 139 142 144 148 152 152 154 157 160 159 153 151 151 151
302 292 292 291 306 304 277 244 220 263 247 257 256 267 274 273 281 286 290 295 296 298 259 275 281 261 258 262 293 302 332 346 334 321 353 74 144 150 125 126 136 146 145 145 146 147 150 158 155 151 149 149 150 149
291 287 297 298 290 275 270 247 225 252 262 263 263 269 270 272 286 286 284 281 282 274 222 228 228 245 275 322 303 297 327 328 356 18 40 62 92 106 129 146 149 142 141 141 141 142 143 144 146 145 146 149 151 150
298 291 257 295 276 247 262 257 247 251 273 255 297 312 295 281 278 279 281 272 261 230 240 242 259 282 301 301 277 340 349 336 16 18 13 70 121 29 96 136 142 145 146 146 148 147 146 147 145 147 145 140 141 144
284 290 287 288 248 241 253 243 248 287 277 265 280 259 263 288 284 278 302 201 222 237 238 252 264 279 296 293 287 339 3 344 23 26 48 81 98 31 85 137 147 144 138 139 143 147 147 143 141 137 137 140 144 145
283 283 265 239 241 238 259 247 248 250 269 276 305 281 251 273 271 315 282 256 256 262 261 256 263 271 289 289 241 11 4 28 50 51 57 53 19 41 104 144 150 146 137 133 144 152 143 140 139 137 139 147 155 148
280 249 241 241 219 262 266 254 236 256 263 257 260 273 266 256 277 246 254 267 268 309 304 267 248 259 273 253 216 343 303 296 47 32 25 33 39 74 111 142 149 152 147 140 143 142 139 135 131 126 130 134 141 132
263 236 224 251 239 245 252 251 253 225 264 246 269 264 278 290 275 282 251 279 354 24 7 302 248 243 262 265 211 325 190 119 18 7 31 33 41 97 137 141 153 147 157 151 147 148 146 142 135 136 140 154 146 135
263 221 201 226 203 197 225 263 234 229 270 248 245 256 300 315 284 279 276 319 328 325 345 4 278 234 242 257 191 309 161 64 17 23 11 2 29 87 109 145 150 155 157 154 151 158 161 163 154 156 156 160 148 131
245 253 228 233 243 256 268 264 278 261 259 258 191 196 292 264 250 252 298 316 317 313 300 299 347 243 228 170 207 168 150 14 0 346 21 57 113 127 117 126 139 144 144 154 157 154 147 144 149 156 158 161 152 144
245 258 214 240 231 239 245 238 244 250 231 216 212 220 223 225 256 257 305 317 318 289 255 239 218 158 190 159 158 174 246 316 322 357 57 121 160 189 145 136 140 145 141 144 150 146 153 155 159 167 168 173 194 186
243 245 267 268 264 252 228 207 220 228 236 206 222 235 230 237 277 287 298 311 293 248 217 204 192 181 156 183 210 241 253 253 301 33 103 133 91 108 154 157 148 148 134 133 133 153 162 165 173 178 194 200 173 183
245 232 242 270 241 245 238 223 254 271 276 276 282 285 287 290 305 314 270 209 227 212 191 181 177 183 186 194 196 196 199 205 181 126 126 122 79 53 125 150 166 168 172 145 158 173 176 186 210 212 193 192 207 205
257 250 256 239 255 259 274 283 281 284 282 280 279 264 271 295 350 63 153 143 149 158 168 179 189 201 202 195 186 182 176 158 151 163 161 147 159 162 163 163 162 173 163 160 246 232 204 167 147 176 192 205 205 208
239 224 245 262 279 296 309 302 293 288 290 304 303 299 305 244 279 71 159 148 161 174 181 181 187 185 168 170 169 161 163 184 232 231 199 185 179 165 157 173 176 179 176 156 149 145 161 175 176 174 188 192 183 211
258 265 257 271 277 288 305 327 299 296 291 277 272 300 327 8 51 101 157 141 134 143 157 167 164 168 173 176 187 204 220 198 189 192 191 181 172 176 178 178 176 167 149 150 172 188 188 186 179 159 151 146 155 195